INMARSAT 3-F3

导读 | 星芒AI

INMARSAT 3-F3 是国际海事卫星组织(Inmarsat)第三代卫星系列中的一颗通信卫星,于2005年发射,主要提供全球移动卫星通信服务。它覆盖L频段,支持海事、航空和陆地移动通信,具备高可靠性和广泛覆盖能力。该卫星位于东经64.5度的轨道位置,为Inmarsat的BGAN(宽带全球区域网络)服务提供支持,广泛应用于紧急通信、远程数据传输和语音服务等领域。

基本信息
目录编号:
24674
目录名称:
INMARSAT 3-F3
国际标识:
1996-070A
轨道中心:
EARTH
卫星名称:
INMARSAT 3-F3
卫星全名:
--
卫星状态:
在轨 (已飞行10587 天)
发射日期:
1996-12-18 UTC
国别 :
(IM)
星等 :
--
轨道信息
数据来源 国际轨道数据 AOE轨道数据
星历时间 2025-12-12T22:22:46+0800
19小时前
查看轨道信息
2025-12-10T15:00:00+0800
3天前
查看轨道信息
半长轴 42246.955km 42246.955km
偏心率 0.0008734 0.0008514
轨道倾角 9.914° 9.911°
近地点辐角 208.664° 206.770°
升交点赤经 51.422° 51.434°
平近点角 270.347° 161.702°
近地点 35831.921km 35832.85km
远地点 35905.719km 35904.79km
周期 1440.300分钟 1440.300分钟
每日圈数 0.999792 0.999792
详细信息
使用方式:
暂无
2D轨道图
3D轨道图
轨道高度分析图
轨道倾角分析图
轨道综合分析图
查看轨道综合分析图